Карточка аэропорта UIUU

Внимание!
Информация на этой странице в стадии наполнения.
Если вы не увидели какой-то информации, или заметили неточность - пожалуйста сообщите нам!
Спасибо!
Команда RU-STAFF
Название аэропортаМухино
Название аэропорта (англ.)Mukhino
Превышение1699 ft. (517.9 m.)
Координаты51°48.45', 107°26.4'
Высота перехода1800m
Эшелон переходаFL090
Коды ответчика2701-2717
Зона ОрВДИркутск РПИ (UIII)
Данные METARUIUU 241900Z 34002MPS 9999 SCT040CB 16/15 Q1010 R26/CLRD60 NOSIG RMK QFE713/0951
Проноз погоды (TAF)UIUU 241700Z 2418/2518 06003G08MPS 9999 SCT040CB TEMPO 2418/2515 VRB08MPS -TSRA
NOTAMshow/hide NOTAM
AWOS   TABLE

Информация о ВПП

ВПП Длина ВПП (м.) Покрытие Курс ВПП Частота ILS
263400Цементобетон263110.3
083400Цементобетон83111.3

Диспетчерские позиции

Позывной Наименование органа УВД Частота
UIUU_TWRУлан-Удэ-Вышка118.200
UIUU_APPУлан-Удэ-Подход129.300



Спутниковое изображение